QPF
0.00 0.00 0.01 0.01 0.06 0.01 0.00 0.00 0.00 0.00 0.00 0.00 0.00 0.00 0.00 0.00 0.00 0.00 0.00 0.00 0.00 0.01 0.09 0.01 0.00 0.00 0.00 0.00 0.00 0.00 0.00 0.00 0.00 0.00 0.00 0.00 0.00 0.00 0.01 0.03 0.00 0.00 0.00
0.00 0.00 0.00 0.01 0.06 0.00 0.00 0.01 0.02 0.00 0.00 0.00 0.00 0.00 0.00 0.00 0.01 0.00 0.00 0.00 0.01 0.05 0.04 0.03 0.00 0.00 0.00 0.00 0.00 0.00 0.00 0.00 0.00 0.00 0.00 0.01 0.01 0.03 0.01 0.00 0.00 0.00 0.01
0.00 0.00 0.00 0.00 0.00 0.01 0.00 0.01 0.03 0.01 0.00 0.00 0.00 0.00 0.00 0.01 0.01 0.00 0.00 0.00 0.02 0.02 0.00 0.00 0.00 0.00 0.00 0.00 0.00 0.00 0.00 0.03 0.07 0.01 0.00 0.00 0.00 0.02 0.00 0.00 0.00 0.00 0.00
0.00 0.00 0.00 0.00 0.00 0.01 0.00 0.01 0.01 0.00 0.00 0.00 0.00 0.00 0.01 0.01 0.01 0.00 0.00 0.00 0.00 0.00 0.00 0.00 0.00 0.00 0.00 0.00 0.00 0.00 0.00 0.00 0.03 0.04 0.04 0.01 0.00 0.00 0.00 0.00 0.00 0.00 0.00
0.01 0.00 0.00 0.00 0.00 0.00 0.00 0.00 0.00 0.00 0.00 0.00 0.00 0.01 0.00 0.00 0.00 0.00 0.00 0.00 0.00 0.00 0.00 0.01 0.01 0.00 0.00 0.00 0.00 0.00 0.00 0.00 0.01 0.04 0.00 0.00 0.00 0.00 0.00 0.00 0.00 0.00 0.00
0.03 0.01 0.00 0.00 0.00 0.00 0.00 0.00 0.00 0.00 0.00 0.00 0.00 0.00 0.00 0.00 0.00 0.00 0.00 0.00 0.00 0.00 0.00 0.01 0.00 0.00 0.00 0.00 0.00 0.00 0.00 0.00 0.01 0.00 0.00 0.00 0.00 0.00 0.00 0.00 0.00 0.00 0.00
0.01 0.00 0.00 0.00 0.00 0.00 0.01 0.00 0.00 0.00 0.00 0.00 0.00 0.01 0.00 0.00 0.00 0.00 0.00 0.00 0.00 0.00 0.00 0.00 0.00 0.00 0.00 0.00 0.00 0.00 0.00 0.02 0.01 0.00 0.00 0.00 0.00 0.00 0.00 0.00 0.00 0.00 0.00
0.00 0.00 0.00 0.00 0.00 0.00 0.00 0.00 0.00 0.00 0.00 0.00 0.00 0.00 0.00 0.00 0.00 0.00 0.00 0.00 0.00 0.00 0.00 0.00 0.00 0.00 0.00 0.00 0.00 0.00 0.00 0.00 0.00 0.00 0.00 0.00 0.00 0.00 0.00 0.00 0.00 0.00 0.00
0.00 0.00 0.00 0.00 0.00 0.00 0.00 0.00 0.00 0.00 0.00 0.00 0.00 0.00 0.00 0.00 0.00 0.00 0.01 0.00 0.00 0.00 0.00 0.00 0.00 0.00 0.00 0.00 0.00 0.00 0.00 0.00 0.00 0.00 0.00 0.00 0.00 0.00 0.00 0.00 0.00 0.00 0.00
0.00 0.00 0.00 0.00 0.00 0.00 0.00 0.00 0.00 0.00 0.00 0.00 0.00 0.00 0.00 0.01 0.04 0.01 0.04 0.00 0.00 0.00 0.00 0.00 0.00 0.00 0.00 0.00 0.00 0.00 0.00 0.00 0.00 0.00 0.00 0.00 0.00 0.00 0.00 0.00 0.00 0.00 0.00
0.00 0.00 0.00 0.00 0.00 0.00 0.00 0.00 0.00 0.00 0.00 0.00 0.00 0.00 0.00 0.00 0.02 0.01 0.00 0.00 0.00 0.00 0.00 0.00 0.00 0.00 0.00 0.00 0.00 0.00 0.00 0.00 0.01 0.00 0.00 0.00 0.00 0.00 0.00 0.00 0.00 0.00 0.00
0.00 0.00 0.01 0.01 0.00 0.00 0.00 0.00 0.00 0.00 0.00 0.00 0.00 0.00 0.00 0.01 0.01 0.05 0.01 0.01 0.00 0.00 0.00 0.02 0.03 0.01 0.00 0.00 0.00 0.00 0.00 0.00 0.00 0.00 0.00 0.00 0.00 0.00 0.00 0.00 0.00 0.00 0.00
0.00 0.00 0.00 0.00 0.00 0.00 0.00 0.00 0.00 0.00 0.00 0.00 0.00 0.00 0.00 0.02 0.01 0.02 0.00 0.01 0.03 0.06 0.05 0.03 0.03 0.02 0.00 0.01 0.00 0.00 0.00 0.00 0.00 0.00 0.00 0.00 0.00 0.00 0.00 0.00 0.00 0.00 0.00
0.00 0.00 0.00 0.00 0.02 0.00 0.00 0.00 0.00 0.00 0.00 0.00 0.00 0.00 0.00 0.00 0.00 0.00 0.00 0.01 0.03 0.24 0.13 0.13 0.16 0.09 0.03 0.02 0.00 0.00 0.00 0.00 0.00 0.00 0.00 0.00 0.00 0.00 0.00 0.00 0.00 0.00 0.00
0.00 0.00 0.00 0.00 0.02 0.01 0.01 0.00 0.00 0.00 0.00 0.00 0.00 0.00 0.00 0.00 0.00 0.00 0.00 0.00 0.01 0.09 0.09 0.10 0.08 0.04 0.06 0.02 0.00 0.00 0.00 0.00 0.00 0.00 0.00 0.03 0.00 0.00 0.00 0.00 0.00 0.00 0.00
0.00 0.00 0.00 0.00 0.00 0.00 0.00 0.01 0.00 0.00 0.00 0.00 0.00 0.00 0.00 0.00 0.00 0.00 0.00 0.00 0.00 0.00 0.08 0.05 0.07 0.11 0.08 0.00 0.01 0.01 0.00 0.00 0.00 0.00 0.00 0.01 0.02 0.01 0.00 0.00 0.02 0.01 0.00
0.00 0.00 0.00 0.00 0.00 0.00 0.00 0.00 0.00 0.00 0.00 0.00 0.00 0.00 0.00 0.00 0.00 0.00 0.00 0.01 0.01 0.00 0.02 0.02 0.02 0.08 0.01 0.00 0.02 0.01 0.01 0.00 0.00 0.00 0.00 0.00 0.01 0.01 0.00 0.00 0.02 0.01 0.02
0.00 0.00 0.00 0.00 0.00 0.00 0.00 0.00 0.00 0.00 0.00 0.00 0.00 0.00 0.00 0.01 0.00 0.00 0.00 0.01 0.00 0.00 0.03 0.02 0.01 0.02 0.02 0.01 0.04 0.05 0.07 0.02 0.02 0.01 0.00 0.00 0.00 0.00 0.02 0.01 0.01 0.07 0.06
0.00 0.00 0.00 0.00 0.00 0.00 0.00 0.00 0.00 0.00 0.00 0.00 0.00 0.00 0.02 0.02 0.00 0.00 0.00 0.01 0.00 0.00 0.03 0.08 0.10 0.15 0.08 0.12 0.21 0.09 0.18 0.20 0.06 0.03 0.01 0.00 0.00 0.00 0.00 0.00 0.01 0.02 0.05
0.00 0.00 0.00 0.00 0.00 0.00 0.00 0.00 0.00 0.00 0.00 0.00 0.00 0.00 0.00 0.00 0.01 0.00 0.00 0.00 0.00 0.01 0.16 0.04 0.10 0.09 0.15 0.26 0.21 0.20 0.23 0.18 0.09 0.12 0.02 0.00 0.00 0.00 0.00 0.00 0.00 0.00 0.00
0.00 0.00 0.00 0.00 0.00 0.00 0.00 0.00 0.00 0.00 0.00 0.00 0.00 0.01 0.01 0.03 0.01 0.00 0.00 0.00 0.00 0.06 0.12 0.02 0.01 0.00 0.01 0.02 0.05 0.04 0.02 0.04 0.05 0.10 0.05 0.00 0.00 0.00 0.00 0.00 0.00 0.00 0.00
0.00 0.00 0.00 0.00 0.00 0.00 0.00 0.00 0.00 0.00 0.00 0.02 0.04 0.08 0.07 0.03 0.00 0.00 0.00 0.00 0.00 0.03 0.01 0.00 0.00 0.00 0.00 0.02 0.01 0.02 0.02 0.01 0.00 0.01 0.03 0.00 0.00 0.01 0.01 0.00 0.00 0.00 0.00
0.00 0.00 0.00 0.00 0.00 0.00 0.00 0.00 0.00 0.00 0.02 0.01 0.00 0.03 0.01 0.00 0.00 0.00 0.00 0.02 0.01 0.03 0.06 0.03 0.04 0.03 0.01 0.03 0.06 0.12 0.11 0.05 0.02 0.00 0.01 0.03 0.03 0.05 0.04 0.04 0.01 0.00 0.00
0.00 0.00 0.00 0.00 0.00 0.00 0.00 0.00 0.00 0.00 0.00 0.00 0.00 0.00 0.00 0.00 0.00 0.01 0.01 0.00 0.00 0.01 0.03 0.07 0.10 0.05 0.10 0.03 0.04 0.12 0.09 0.04 0.04 0.01 0.02 0.02 0.04 0.03 0.03 0.05 0.04 0.03 0.00
0.00 0.00 0.00 0.00 0.00 0.00 0.00 0.00 0.00 0.00 0.00 0.00 0.00 0.00 0.00 0.00 0.00 0.00 0.00 0.00 0.00 0.00 0.00 0.01 0.03 0.03 0.04 0.04 0.07 0.08 0.06 0.05 0.04 0.02 0.01 0.00 0.00 0.00 0.02 0.02 0.04 0.05 0.01
0.00 0.00 0.00 0.00 0.00 0.00 0.00 0.00 0.00 0.00 0.00 0.00 0.00 0.00 0.00 0.00 0.00 0.00 0.00 0.00 0.00 0.00 0.00 0.00 0.00 0.00 0.00 0.01 0.01 0.03 0.06 0.05 0.03 0.05 0.03 0.00 0.00 0.00 0.00 0.02 0.04 0.04 0.02
MSLP
1015.99 1015.79 1015.55 1015.55 1015.60 1015.67 1015.91 1016.19 1016.37 1016.46 1016.56 1016.61 1016.63 1016.76 1016.93 1017.14 1017.32 1017.47 1017.59 1017.71 1017.88 1017.98 1018.05 1018.04 1018.05 1018.03 1018.05 1018.28 1018.54 1018.58 1018.76 1018.70 1018.71 1018.79 1019.05 1019.27 1019.25 1019.37 1019.41 1019.44 1019.60 1019.81 1019.97
1015.57 1015.75 1015.64 1015.68 1015.69 1015.97 1016.36 1016.59 1016.77 1016.83 1017.00 1017.02 1017.11 1017.30 1017.38 1017.45 1017.58 1017.68 1017.76 1017.85 1018.01 1018.14 1018.22 1018.18 1018.29 1018.32 1018.31 1018.38 1018.61 1018.79 1018.91 1018.94 1018.93 1018.95 1019.16 1019.49 1019.49 1019.57 1019.54 1019.57 1019.79 1020.01 1020.09
1015.73 1015.70 1015.76 1015.85 1016.03 1016.37 1016.69 1016.90 1017.06 1017.14 1017.31 1017.32 1017.37 1017.54 1017.68 1017.69 1017.86 1017.99 1018.09 1018.16 1018.25 1018.33 1018.49 1018.53 1018.57 1018.64 1018.63 1018.64 1018.79 1018.93 1019.07 1019.21 1019.25 1019.20 1019.28 1019.60 1019.71 1019.79 1019.89 1019.91 1019.97 1020.16 1020.29
1015.64 1015.82 1016.09 1016.15 1016.44 1016.79 1017.03 1017.25 1017.25 1017.33 1017.55 1017.62 1017.71 1017.85 1017.95 1018.03 1018.11 1018.21 1018.32 1018.44 1018.56 1018.62 1018.72 1018.79 1018.83 1018.83 1018.82 1018.80 1018.95 1019.03 1019.17 1019.22 1019.35 1019.39 1019.31 1019.56 1019.70 1019.91 1020.07 1020.23 1020.21 1020.29 1020.50
1015.76 1016.02 1016.39 1016.53 1016.77 1017.06 1017.25 1017.45 1017.49 1017.62 1017.77 1017.86 1017.92 1018.13 1018.25 1018.34 1018.41 1018.38 1018.55 1018.72 1018.82 1018.91 1018.97 1018.99 1019.02 1019.01 1019.03 1018.98 1018.99 1019.10 1019.17 1019.17 1019.17 1019.15 1019.27 1019.54 1019.73 1019.84 1020.16 1020.25 1020.49 1020.41 1020.56
1015.85 1016.18 1016.48 1016.73 1017.04 1017.33 1017.46 1017.60 1017.74 1017.89 1018.02 1018.14 1018.24 1018.39 1018.41 1018.46 1018.58 1018.56 1018.75 1018.92 1019.06 1019.21 1019.26 1019.29 1019.39 1019.37 1019.37 1019.18 1019.09 1019.06 1019.17 1019.11 1018.95 1018.70 1019.07 1019.47 1019.58 1019.67 1019.97 1020.20 1020.39 1020.59 1020.59
1015.91 1016.36 1016.71 1016.91 1017.20 1017.45 1017.62 1017.84 1017.97 1018.07 1018.29 1018.41 1018.57 1018.68 1018.74 1018.70 1018.68 1018.85 1019.02 1019.23 1019.32 1019.41 1019.55 1019.49 1019.48 1019.54 1019.48 1019.39 1019.17 1019.07 1019.11 1019.06 1018.93 1019.13 1019.11 1019.56 1019.45 1019.55 1019.76 1020.08 1020.30 1020.50 1020.66
1016.01 1016.49 1016.87 1017.17 1017.42 1017.67 1017.85 1018.02 1018.23 1018.34 1018.53 1018.65 1018.81 1018.85 1018.89 1018.90 1018.96 1019.23 1019.37 1019.49 1019.54 1019.65 1019.76 1019.77 1019.75 1019.70 1019.61 1019.40 1019.19 1019.25 1019.25 1019.15 1019.19 1019.28 1018.94 1019.26 1019.42 1019.34 1019.57 1019.81 1020.05 1020.27 1020.47
1016.07 1016.70 1017.17 1017.46 1017.61 1017.81 1017.99 1018.29 1018.43 1018.55 1018.68 1018.76 1018.86 1018.96 1019.05 1019.22 1019.36 1019.37 1019.47 1019.64 1019.70 1019.84 1019.91 1019.84 1019.77 1019.75 1019.64 1019.49 1019.41 1019.26 1019.08 1018.94 1019.16 1019.24 1019.22 1019.33 1019.30 1019.25 1019.38 1019.67 1019.91 1020.02 1020.21
1016.25 1016.87 1017.37 1017.70 1017.85 1018.12 1018.31 1018.45 1018.63 1018.73 1018.77 1018.93 1018.99 1019.09 1019.30 1019.46 1019.55 1019.60 1019.65 1019.70 1019.72 1019.95 1020.08 1020.07 1019.99 1019.82 1019.70 1019.37 1019.37 1019.30 1018.89 1018.71 1018.80 1018.97 1019.18 1019.26 1019.24 1019.23 1019.26 1019.42 1019.75 1019.96 1020.07
1016.43 1016.83 1017.24 1017.73 1018.08 1018.32 1018.49 1018.65 1018.79 1018.92 1019.01 1019.00 1019.05 1019.18 1019.42 1019.61 1019.65 1019.61 1019.68 1019.79 1019.89 1019.91 1019.88 1019.87 1019.91 1019.89 1019.72 1019.41 1019.13 1019.17 1018.89 1018.93 1018.80 1018.73 1018.91 1019.10 1019.13 1019.05 1019.11 1019.21 1019.43 1019.73 1019.93
1016.47 1016.84 1017.08 1017.47 1017.94 1018.15 1018.32 1018.70 1018.92 1019.03 1019.16 1019.16 1019.16 1019.32 1019.42 1019.39 1019.62 1019.63 1019.59 1019.62 1019.72 1019.75 1019.75 1019.65 1019.63 1019.67 1019.64 1019.59 1019.24 1018.93 1018.86 1018.78 1018.81 1018.55 1018.75 1018.99 1018.94 1018.85 1018.82 1019.01 1019.21 1019.48 1019.70
1016.03 1016.50 1017.01 1017.19 1017.55 1017.80 1017.87 1018.30 1018.58 1018.81 1018.98 1019.02 1019.04 1019.14 1019.28 1019.28 1019.36 1019.65 1019.68 1019.69 1019.54 1019.67 1020.03 1019.83 1019.56 1019.51 1019.45 1019.51 1019.31 1018.71 1018.73 1018.61 1018.59 1018.07 1018.17 1018.41 1018.68 1018.61 1018.67 1018.81 1019.01 1019.24 1019.45
1015.90 1016.29 1016.69 1017.03 1017.39 1017.50 1017.77 1018.02 1018.13 1018.34 1018.51 1018.61 1018.63 1018.64 1018.90 1019.00 1019.44 1019.26 1019.35 1019.23 1019.37 1019.75 1019.84 1019.29 1019.81 1019.37 1019.22 1019.06 1018.93 1018.64 1018.37 1018.27 1018.54 1018.24 1018.25 1018.27 1018.20 1018.39 1018.42 1018.57 1018.73 1018.92 1019.13
1015.62 1016.09 1016.48 1016.77 1017.25 1017.24 1017.63 1017.79 1017.88 1018.10 1018.17 1018.04 1018.14 1018.23 1018.49 1018.81 1018.94 1018.97 1018.94 1018.89 1018.81 1019.19 1018.98 1019.02 1019.38 1019.00 1018.93 1018.71 1018.47 1018.33 1018.31 1017.98 1018.02 1018.20 1018.12 1018.13 1018.01 1018.14 1018.02 1018.17 1018.38 1018.51 1018.85
1015.23 1015.86 1016.19 1016.60 1016.67 1017.03 1017.45 1017.23 1017.45 1017.30 1017.64 1017.79 1017.99 1018.02 1018.27 1018.46 1018.73 1018.79 1018.70 1018.58 1018.34 1018.49 1019.07 1018.99 1018.26 1018.06 1018.31 1018.47 1018.27 1018.18 1018.11 1018.11 1017.84 1017.78 1017.71 1017.86 1017.74 1017.84 1017.73 1017.71 1018.03 1018.23 1018.38
1014.93 1015.53 1015.97 1016.25 1016.27 1016.63 1016.69 1016.72 1016.99 1017.29 1017.42 1017.25 1017.57 1017.79 1017.79 1018.01 1018.24 1018.31 1018.30 1018.37 1018.35 1018.06 1018.32 1018.26 1017.97 1018.09 1018.24 1018.03 1018.03 1017.82 1017.77 1017.67 1017.58 1017.32 1017.11 1017.39 1017.51 1017.33 1017.11 1017.27 1017.42 1017.65 1017.88
1014.56 1015.24 1015.65 1015.81 1016.14 1016.51 1016.78 1016.81 1017.01 1017.12 1017.38 1017.31 1017.38 1017.47 1017.57 1017.64 1017.71 1017.95 1017.99 1018.05 1017.88 1017.68 1017.65 1017.89 1017.99 1018.01 1018.23 1018.11 1017.87 1018.09 1018.00 1017.25 1017.31 1017.26 1016.67 1016.69 1016.87 1016.86 1016.82 1016.89 1016.87 1016.90 1017.24
1014.12 1014.85 1015.25 1015.59 1016.01 1016.38 1016.56 1016.85 1017.01 1017.14 1017.37 1017.07 1017.00 1017.31 1017.62 1017.63 1017.50 1017.67 1017.65 1017.65 1017.55 1017.52 1017.37 1017.95 1018.13 1018.12 1018.41 1018.11 1018.04 1017.93 1018.50 1018.93 1017.46 1016.76 1016.71 1016.33 1016.06 1016.06 1016.08 1016.06 1016.12 1016.25 1016.40
1013.91 1014.46 1014.94 1015.39 1015.79 1016.18 1016.55 1016.81 1017.10 1017.30 1017.21 1016.89 1017.01 1017.10 1016.76 1017.03 1017.32 1017.34 1017.46 1017.46 1017.37 1017.59 1017.73 1017.73 1018.13 1017.97 1018.10 1018.05 1017.92 1017.84 1017.72 1018.35 1016.89 1016.52 1016.38 1015.73 1015.54 1015.28 1015.33 1015.31 1015.34 1015.53 1015.73
1013.82 1014.33 1014.77 1015.21 1015.61 1016.04 1016.57 1017.05 1017.28 1017.45 1017.29 1017.06 1017.05 1016.87 1016.97 1017.01 1017.17 1016.98 1017.01 1017.08 1017.25 1017.59 1017.72 1017.62 1017.77 1017.87 1017.91 1017.80 1017.92 1018.03 1017.61 1017.25 1016.59 1015.89 1015.25 1014.95 1014.75 1014.54 1014.46 1014.42 1014.47 1014.55 1014.79
1013.67 1014.15 1014.63 1014.99 1015.37 1015.74 1016.18 1016.59 1016.84 1017.01 1017.09 1016.99 1016.66 1016.70 1016.83 1016.97 1016.92 1016.67 1016.68 1016.96 1016.97 1017.26 1017.38 1017.41 1017.62 1017.93 1017.81 1017.45 1017.77 1017.80 1016.99 1015.83 1015.51 1014.82 1014.52 1014.33 1013.96 1014.07 1013.78 1013.41 1013.35 1013.47 1013.56
1013.12 1013.70 1014.25 1014.69 1015.08 1015.44 1015.79 1016.18 1016.53 1016.74 1016.89 1016.85 1016.69 1016.74 1016.48 1016.55 1016.39 1016.36 1016.30 1016.34 1016.56 1016.69 1016.87 1016.96 1016.99 1017.31 1017.51 1017.05 1017.03 1017.34 1017.35 1016.99 1016.04 1014.21 1014.15 1014.56 1014.15 1013.79 1013.77 1013.17 1012.49 1012.65 1012.56
1012.26 1012.93 1013.57 1014.11 1014.65 1015.04 1015.37 1015.77 1016.36 1016.53 1016.78 1016.58 1016.29 1016.18 1016.12 1016.00 1016.13 1016.02 1015.93 1015.89 1015.90 1016.27 1016.48 1016.60 1016.65 1016.76 1016.99 1016.86 1016.69 1016.71 1016.55 1016.50 1016.35 1014.91 1013.96 1014.29 1013.50 1012.70 1012.77 1013.36 1013.05 1012.89 1012.21
1011.40 1012.19 1012.87 1013.48 1014.10 1014.53 1014.99 1015.23 1015.73 1016.07 1016.13 1016.28 1016.37 1016.32 1016.44 1016.31 1016.11 1016.06 1016.08 1016.08 1016.24 1016.29 1016.34 1016.34 1016.35 1016.36 1016.41 1016.55 1016.43 1016.40 1016.35 1016.18 1016.07 1015.83 1014.27 1013.03 1013.21 1012.35 1012.53 1013.23 1012.10 1013.35 1011.84
1010.73 1011.45 1012.25 1012.99 1013.55 1014.00 1014.43 1014.74 1015.09 1015.43 1015.77 1016.06 1016.33 1016.36 1016.36 1016.35 1016.33 1016.24 1016.17 1016.13 1016.12 1016.29 1016.31 1016.31 1016.29 1016.23 1016.14 1016.03 1015.88 1015.81 1015.77 1015.89 1015.65 1015.41 1014.89 1013.72 1012.95 1011.44 1011.79 1012.39 1012.17 1012.17 1011.63
Thickness
5772 5775 5779 5779 5780 5780 5779 5776 5775 5775 5775 5775 5776 5777 5774 5773 5771 5772 5771 5771 5770 5770 5771 5772 5772 5773 5772 5771 5768 5767 5766 5767 5767 5767 5764 5761 5761 5759 5759 5758 5756 5753 5751
5778 5779 5779 5780 5781 5780 5777 5775 5772 5774 5773 5774 5774 5773 5774 5773 5772 5772 5772 5772 5772 5771 5771 5773 5772 5772 5771 5771 5769 5768 5767 5766 5766 5766 5764 5761 5760 5759 5760 5759 5756 5754 5752
5780 5779 5779 5780 5779 5777 5775 5774 5773 5774 5773 5775 5775 5774 5773 5774 5773 5772 5772 5772 5772 5772 5771 5772 5772 5771 5771 5771 5770 5768 5768 5767 5766 5767 5766 5763 5762 5760 5758 5757 5756 5754 5752
5780 5780 5778 5778 5777 5774 5773 5771 5773 5774 5773 5774 5774 5773 5773 5773 5773 5773 5772 5772 5772 5772 5772 5772 5771 5771 5770 5771 5771 5770 5769 5769 5768 5767 5768 5765 5764 5761 5759 5757 5756 5755 5752
5780 5778 5777 5776 5775 5772 5771 5771 5773 5773 5773 5774 5774 5771 5771 5771 5771 5772 5771 5771 5771 5771 5771 5771 5771 5771 5770 5771 5771 5770 5771 5771 5770 5771 5771 5768 5767 5763 5760 5758 5755 5756 5754
5779 5777 5776 5774 5773 5772 5772 5772 5772 5772 5772 5772 5771 5770 5770 5771 5770 5771 5770 5771 5770 5769 5769 5769 5769 5769 5769 5771 5772 5772 5772 5774 5774 5776 5774 5771 5771 5768 5764 5761 5758 5756 5756
5780 5776 5774 5774 5773 5771 5772 5772 5772 5772 5770 5770 5769 5769 5768 5769 5769 5769 5769 5768 5768 5768 5767 5768 5768 5768 5769 5771 5772 5773 5773 5774 5776 5775 5775 5772 5773 5771 5768 5765 5761 5758 5757
5780 5776 5774 5773 5772 5771 5771 5771 5770 5770 5769 5769 5768 5768 5768 5767 5768 5767 5766 5766 5765 5764 5764 5765 5766 5767 5767 5770 5773 5772 5772 5773 5773 5774 5778 5775 5773 5774 5772 5770 5766 5762 5759
5781 5776 5773 5772 5771 5770 5770 5769 5769 5769 5768 5768 5768 5767 5766 5765 5765 5765 5765 5763 5763 5762 5761 5763 5764 5765 5766 5768 5769 5772 5773 5775 5773 5773 5774 5775 5774 5775 5774 5772 5770 5767 5763
5782 5776 5773 5771 5771 5769 5769 5768 5768 5768 5768 5767 5767 5766 5765 5764 5764 5763 5762 5762 5761 5759 5757 5757 5758 5761 5763 5766 5767 5769 5773 5776 5776 5775 5773 5775 5775 5775 5775 5774 5772 5770 5767
5782 5780 5776 5772 5770 5769 5769 5767 5767 5766 5766 5766 5767 5766 5764 5763 5762 5762 5761 5758 5756 5756 5757 5757 5757 5758 5760 5763 5767 5768 5770 5772 5775 5774 5775 5774 5775 5776 5775 5775 5774 5771 5770
5780 5780 5780 5777 5773 5772 5771 5769 5767 5766 5765 5766 5767 5766 5765 5765 5762 5760 5759 5757 5756 5755 5756 5758 5759 5758 5758 5760 5763 5767 5769 5770 5772 5774 5775 5773 5775 5775 5777 5776 5775 5773 5771
5788 5787 5784 5781 5778 5776 5776 5773 5771 5769 5767 5767 5767 5767 5766 5764 5763 5759 5757 5754 5758 5756 5752 5753 5757 5758 5758 5757 5759 5766 5767 5769 5770 5776 5777 5776 5775 5775 5776 5775 5775 5774 5772
5790 5790 5788 5784 5782 5781 5780 5778 5776 5774 5772 5771 5771 5771 5769 5767 5763 5762 5760 5759 5759 5755 5752 5753 5750 5756 5758 5759 5758 5763 5767 5769 5768 5771 5773 5774 5775 5775 5775 5775 5774 5773 5772
5795 5794 5792 5789 5785 5785 5783 5782 5780 5777 5775 5777 5776 5774 5771 5768 5766 5763 5762 5764 5765 5761 5760 5756 5754 5757 5756 5757 5760 5761 5761 5766 5768 5767 5769 5770 5771 5772 5775 5775 5774 5773 5772
5803 5799 5798 5795 5793 5790 5787 5788 5785 5785 5782 5779 5777 5776 5773 5770 5767 5766 5767 5765 5766 5765 5762 5761 5765 5763 5760 5756 5758 5759 5758 5758 5764 5765 5768 5767 5770 5771 5773 5774 5772 5772 5772
5808 5805 5801 5799 5798 5795 5793 5792 5789 5785 5782 5783 5781 5777 5777 5774 5772 5770 5770 5769 5766 5765 5765 5766 5764 5759 5759 5761 5762 5761 5760 5758 5759 5762 5768 5767 5767 5770 5773 5774 5774 5773 5772
5814 5808 5806 5806 5802 5798 5795 5792 5789 5787 5784 5783 5783 5783 5780 5778 5776 5773 5772 5770 5770 5770 5767 5764 5761 5759 5757 5759 5760 5758 5758 5761 5757 5757 5765 5768 5767 5768 5771 5772 5774 5776 5774
5819 5813 5810 5808 5804 5801 5798 5794 5791 5788 5785 5789 5789 5786 5782 5781 5778 5777 5775 5773 5772 5770 5768 5763 5758 5758 5754 5755 5754 5747 5746 5740 5751 5755 5757 5764 5767 5770 5771 5773 5775 5776 5776
5822 5819 5815 5811 5807 5804 5800 5795 5792 5788 5787 5791 5789 5787 5787 5785 5781 5779 5776 5773 5772 5770 5767 5764 5759 5758 5754 5752 5749 5745 5738 5734 5753 5760 5758 5763 5766 5769 5771 5772 5774 5775 5774
5822 5818 5815 5811 5809 5805 5799 5793 5789 5785 5786 5790 5789 5788 5787 5784 5781 5781 5779 5775 5771 5767 5764 5763 5759 5756 5752 5752 5745 5740 5740 5744 5751 5759 5763 5767 5769 5770 5772 5774 5775 5776 5776
5820 5818 5815 5812 5809 5806 5802 5798 5795 5791 5788 5789 5790 5789 5787 5784 5782 5782 5780 5777 5773 5769 5766 5762 5758 5752 5751 5751 5741 5740 5738 5748 5753 5762 5767 5769 5772 5768 5771 5775 5777 5778 5778
5823 5818 5815 5813 5810 5807 5805 5801 5797 5795 5790 5786 5787 5786 5785 5783 5779 5777 5776 5773 5772 5770 5766 5763 5760 5754 5748 5750 5747 5738 5728 5725 5733 5761 5765 5758 5760 5763 5765 5768 5777 5777 5780
5830 5826 5820 5816 5812 5809 5806 5801 5794 5788 5782 5785 5787 5787 5783 5780 5778 5776 5776 5773 5771 5767 5763 5761 5759 5754 5748 5745 5744 5739 5738 5735 5727 5742 5754 5746 5759 5766 5769 5758 5760 5762 5772
5836 5830 5824 5819 5814 5810 5806 5802 5796 5791 5791 5789 5785 5783 5779 5775 5773 5772 5769 5767 5764 5762 5759 5756 5753 5750 5747 5741 5738 5735 5733 5731 5730 5727 5741 5751 5750 5763 5763 5752 5761 5748 5764
5839 5833 5827 5819 5814 5811 5807 5804 5799 5794 5790 5785 5780 5777 5773 5770 5767 5764 5762 5759 5757 5755 5752 5750 5747 5743 5741 5739 5737 5734 5730 5725 5725 5722 5725 5740 5744 5760 5760 5750 5758 5758 5763